Regional Weather Roundup
Issued by NWS Sterling, VA

Home | Current Version | Previous Version | Text Only | Print | Product List | Glossary Off
Versions: 1 2 3 4 5 6 7 8 9 10 11 12 13 14 15 16 17 18 19 20 21 22 23 24 25 26 27 28 29 30 31 32 33 34 35 36 37 38 39 40 41 42 43 44 45 46 47 48 49 50

000
ASUS41 KLWX 290611
RWRLWX

REGIONAL WEATHER ROUNDUP
NATIONAL WEATHER SERVICE BALTIMORE MD/WASHINGTON DC
200 AM EDT SAT APR 29 2017

Note: "FAIR" indicates few or no clouds below 12,000 feet
with no significant weather and/or obstructions to visibility.
 TC=TEMPERATURE CELSIUS

 * =Non NWS site. Station does not report precipitation (e.g. rain,
    snow, etc.), thunder, or fog.

DCZ001-MDZ009-015-VAZ040>042-051-053>054-290700-
WASHINGTON METRO

CITY           SKY/WX    TMP DP  RH WIND       PRES   REMARKS
WASHINGTON NAT CLOUDY    70  68  93 SE3       30.01S
DULLES         CLOUDY    67  63  87 CALM      30.01S
ANDREWS AFB    CLOUDY    71  67  87 S7        30.01R
FT BELVOIR     CLOUDY    66  64  92 CALM      30.01R
QUANTICO       CLOUDY    71  68  90 SW5       30.02R
COLLEGE PARK*  CLOUDY    68  65  90 CALM      30.01F
LEESBURG*      CLOUDY    72  68  88 S7        30.01F
MANASSAS*        N/A     70  65  84 CALM      30.02R

$$

MDZ006>007-011-014-290700-
BALTIMORE METRO

CITY           SKY/WX    TMP DP  RH WIND       PRES   REMARKS
BWI AIRPORT    CLOUDY    69  68  96 SE3       30.01R
MD SCIENCE CTR   N/A     72  66  81 MISG      30.02S
MARTIN STATE   CLOUDY    66  64  94 CALM      30.03F
ANNAPOLIS      CLOUDY    70  69  97 S9        30.01S
FORT MEADE*    MOCLDY    64  63  94 CALM      30.04F

$$

MDZ012-015-019>023-290700-
MARYLAND EASTERN SHORE

CITY           SKY/WX    TMP DP  RH WIND       PRES   REMARKS
OCEAN CITY     MOCLDY    65  63  93 SW7       30.05F FOG
SALISBURY      CLEAR     71  70  96 S8        30.04F
BAY BRIDGE AP* CLOUDY    68  64  88 W3        30.02R
CAMBRIDGE*       N/A     72  70  94 S6        30.03S
EASTON*        CLOUDY    74  68  82 S9        30.05F

$$

MDZ017>025-290700-
SOUTHERN MARYLAND

CITY           SKY/WX    TMP DP  RH WIND       PRES   REMARKS
PATUXENT RIVER CLOUDY    72  71  97 S7        30.02F
ST INIGOES     CLOUDY    72  68  87 S9        30.02F
LEONARDTOWN*   CLOUDY    72  68  88 SW6       30.04S

$$

MDZ003>005-290700-
NORTH CENTRAL MARYLAND

CITY           SKY/WX    TMP DP  RH WIND       PRES   REMARKS
FREDERICK*     CLOUDY    68  68 100 CALM      30.03F
HAGERSTOWN APT CLOUDY    73  63  70 SW3       30.02R
WESTMINSTER*   CLOUDY    72  66  83 S5        30.02F

$$

MDZ501>502-290700-
WESTERN MARYLAND

CITY           SKY/WX    TMP DP  RH WIND       PRES   REMARKS
OAKLAND*       CLOUDY    54  52  94 NW7       30.19R
CUMBERLAND*    CLOUDY    68  63  83 NW5       30.11R

$$

VAZ025>031-290700-
SHENANDOAH VALLEY

CITY           SKY/WX    TMP DP  RH WIND       PRES   REMARKS
WINCHESTER*    CLOUDY    64  59  82 W3        30.01R
FRONT ROYAL*   CLOUDY    66  61  82 W3        30.00S
LURAY*         CLOUDY    72  63  73 SW9       30.02S
NEW MARKET*    CLOUDY    70  61  73 W7        30.02S
STAUNTON*      CLOUDY    65  61  85 S3        30.07S
WAYNESBORO*    CLOUDY    73  64  74 SW10      30.07S

$$

WVZ021-048>050-054>055-290700-
EASTERN WEST VIRGINIA PANHANDLE

CITY           SKY/WX    TMP DP  RH WIND       PRES   REMARKS
MARTINSBURG    CLOUDY    68  61  78 NW3       30.00S
PETERSBURG*    CLOUDY    70  62  74 SE3       30.01R

$$

VAZ036>039-050-290700-
CENTRAL FOOTHILLS

CITY           SKY/WX    TMP DP  RH WIND       PRES   REMARKS
CHARLOTTESVILL MOCLDY    72  66  81 S9        30.03R
CULPEPER*      CLOUDY    71  66  84 CALM      30.03R
ORANGE*        CLOUDY    70  64  83 SW6       30.03S
GORDONSVILLE*  CLOUDY    65  64  97 CALM      30.03S
WARRENTON*     CLOUDY    71  63  77 CALM      30.01S

$$

VAZ055>057-290700-
NORTH AND CENTRAL PIEDMONT

CITY           SKY/WX    TMP DP  RH WIND       PRES   REMARKS
FREDERICKSBRG* CLOUDY    74  68  82 S7        30.01S
STAFFORD*      CLOUDY    66  66  99 S5        30.06R

$$

NCZ024-NYZ072-PAZ021-071-VAZ022-071-290700-
OTHER REGIONAL OBSERVATIONS

CITY           SKY/WX    TMP DP  RH WIND       PRES   REMARKS
NEW YORK CITY  CLOUDY    72  56  57 SW6       30.05F
PHILADELPHIA   CLOUDY    68  60  75 N3        30.04F
PITTSBURGH     CLOUDY    55  54  96 E8        30.01F
ROANOKE        CLEAR     74  63  68 SW8       30.09R
RICHMOND       CLOUDY    75  72  90 S13       30.04S
RALEIGH        PTCLDY    76  72  87 S10       30.11S

$$

ANZ530>537-290700-
MARINE OBSERVATIONS

STATION/POSITION TIME  TEMP    WIND        PRES
                       AIR SEA DIR/SP/G
                 (UTC) (F)     (DEG/KT/KT) (MB)
THOMAS PT LIGHT  0600   65 61  200/  7/  7   N/A
BALT KEY BRIDGE  0548          100/  4/  5 1016.4R
COVE POINT       0548          200/ 13/ 14 1017.0F
LEWISETTA        0548      69  200/ 11/ 12 1016.3F
SOLOMONS ISLAND  0548      63  180/  7/  8   N/A
PINEY POINT      0548          160/  7/  8   N/A

$$




USA.gov is the U.S. government's official web portal to all federal, state and local government web resources and services.